Meteo Giornale » Osservazioni meteo Italia » Bari-Palese Macchie

ore: 02:50 - Osservazioni Meteo Bari-Palese Macchie
Lat. 41° 8' N Lon. 16° 47' E Alt. 34 metri s.l.m.

sereno Europe/Rome

12 °C

Sereno

Temp. 24 Ore

9 °C

21 °C

Nord

1.8 Km/h

Dew point 6 °C

Umidità 66 %

Visibilità  10 Km

Il sole sorge alle ore 05:37

Il sole tramonta alle ore 20:00

Data e Ora Cielo e Fenomeni T °C DP °C Um. % Pres. hPa Vis. km Vento km/h
Oggi h: 02:50 sereno Sereno 12 6 66 1018 10 N 1.8
Oggi h: 02:20 sereno Sereno 12 6 66 1018 10 N 3.7
Oggi h: 01:50 sereno Sereno 12 6 66 1018 10 N 5.5
Oggi h: 01:20 sereno Sereno 13 6 62 1018 10 SE 7.4
Oggi h: 00:50 sereno Sereno 14 6 58 1018 10 SE 9.3
Oggi h: 00:20 sereno Sereno 14 7 62 1018 10 SE 11.1
Ieri h: 23:50 sereno Sereno 13 7 66 1018 10 N 5.5
Ieri h: 23:20 sereno Sereno 14 8 67 1019 10 S 9.3
Ieri h: 22:50 sereno Sereno 15 9 67 1019 10 N 3.7
Ieri h: 22:20 sereno Sereno 14 9 71 1019 10 N 3.7
Ieri h: 21:50 sereno Sereno 14 11 82 1018 10 N 5.5
Ieri h: 21:20 sereno Sereno 16 13 82 1018 10 N 5.5
Ieri h: 20:50 sereno Sereno 16 12 77 1018 10 E/NE 7.4
Ieri h: 20:20 sereno Sereno 17 11 67 1018 10 E/NE 7.4
Ieri h: 19:50 sereno Sereno 17 12 72 1018 10 E/NE 7.4
Ieri h: 19:20 sereno Sereno 18 10 59 1018 10 E/NE 7.4
Ieri h: 18:50 sereno Sereno 19 10 55 1018 10 E 9.3
Ieri h: 18:20 sereno Sereno 19 10 55 1018 10 E 11.1
Ieri h: 17:50 sereno Sereno 19 9 52 1018 10 E/NE 13
Ieri h: 17:20 sereno Sereno 20 9 49 1018 10 E/NE 11.1
Ieri h: 16:50 sereno Sereno 20 8 45 1019 10 E/NE 13
Ieri h: 16:20 sereno Sereno 20 9 49 1019 10 E/NE 13
Ieri h: 15:50 sereno Sereno 21 8 43 1019 10 NE 11.1
Ieri h: 15:20 sereno Sereno 21 8 43 1019 10 NE 11.1
Ieri h: 14:50 sereno Sereno 21 7 40 1019 10 N/NE 9.3
Ieri h: 14:20 sereno Sereno 21 8 43 1020 10 N/NE 9.3
Ieri h: 13:50 sereno Sereno 21 7 40 1020 10 NE 11.1
Ieri h: 13:20 sereno Sereno 20 6 39 1020 10 N/NE 11.1
Ieri h: 12:50 sereno Sereno 21 6 37 1020 10 N/NE 11.1
Ieri h: 12:20 sereno Sereno 20 5 37 1020 10 N/NE 11.1
Ieri h: 11:50 sereno Sereno 21 5 35 1020 10 N 9.3
Ieri h: 11:20 sereno Sereno 20 5 37 1020 10 N/NE 11.1
Ieri h: 10:50 sereno Sereno 20 5 37 1020 10 N 9.3
Ieri h: 10:20 sereno Sereno 20 5 37 1020 10 N/NO 11.1
Ieri h: 09:50 sereno Sereno 19 5 39 1020 10 N/NO 13
Ieri h: 09:20 sereno Sereno 19 6 42 1020 10 N/NO 9.3
Ieri h: 08:50 sereno Sereno 19 6 42 1020 10 NO 9.3
Ieri h: 08:20 sereno Sereno 18 7 48 1019 10 O/NO 9.3
Ieri h: 07:50 sereno Sereno 16 7 55 1019 10 N 5.5
Ieri h: 07:20 sereno Sereno 14 8 67 1019 10 N 3.7
Ieri h: 06:50 sereno Sereno 12 7 71 1019 10 O/SO 7.4
Ieri h: 06:20 sereno Sereno 11 6 71 1019 10 O 11.1
Ieri h: 05:50 sereno Sereno 9 5 75 1019 10 O/SO 9.3
Ieri h: 05:20 sereno Sereno 10 6 76 1019 10 N 3.7
Ieri h: 04:20 sereno Sereno 11 6 71 1019 10 O/SO 11.1
Ieri h: 03:50 sereno Sereno 10 7 81 1019 10 O/SO 11.1